Temp
-16 -16 -17 -17 -17 -17 -17 -17 -16 -16 -17 -16 -16 -16 -16 -15 -15 -16 -16 -17 -16 -15 -15 -14 -14 -14 -13 -13 -13 -13 -13 -13 -13 -14 -13 -14 -14 -14 -13 -13 -13 -13 -13 -13
-16 -16 -16 -17 -17 -17 -17 -17 -17 -17 -16 -16 -16 -17 -16 -16 -16 -17 -17 -18 -17 -16 -16 -15 -15 -15 -14 -13 -13 -13 -13 -13 -13 -13 -13 -13 -13 -13 -13 -13 -13 -13 -13 -13
-16 -16 -16 -17 -18 -18 -17 -17 -17 -17 -17 -16 -17 -16 -16 -16 -16 -16 -17 -17 -17 -17 -16 -16 -14 -14 -14 -14 -14 -14 -13 -13 -13 -13 -13 -13 -13 -13 -13 -13 -13 -13 -13 -13
-16 -16 -17 -18 -18 -19 -19 -19 -18 -18 -18 -18 -17 -17 -17 -16 -16 -16 -17 -16 -17 -17 -17 -16 -15 -14 -13 -13 -14 -13 -13 -13 -13 -13 -13 -13 -13 -13 -12 -12 -13 -13 -13 -13
-16 -17 -18 -19 -19 -19 -19 -19 -19 -19 -18 -18 -18 -18 -17 -17 -16 -16 -16 -16 -16 -17 -17 -17 -17 -15 -15 -14 -13 -14 -14 -14 -13 -13 -13 -13 -13 -12 -13 -12 -12 -12 -13 -13
-16 -18 -19 -19 -18 -19 -19 -19 -19 -19 -19 -19 -18 -18 -17 -17 -16 -16 -16 -16 -16 -16 -16 -16 -16 -16 -15 -15 -14 -14 -13 -13 -13 -13 -13 -13 -13 -13 -13 -12 -13 -12 -13 -13
-16 -18 -18 -19 -19 -19 -19 -19 -19 -19 -19 -19 -19 -18 -18 -17 -17 -16 -16 -16 -16 -16 -16 -16 -15 -15 -15 -15 -15 -14 -14 -13 -13 -13 -13 -13 -13 -12 -12 -13 -13 -13 -13 -13
-17 -18 -18 -19 -19 -19 -19 -19 -19 -19 -19 -19 -19 -19 -18 -18 -18 -18 -17 -17 -16 -16 -16 -16 -16 -16 -15 -14 -14 -14 -14 -14 -14 -14 -13 -13 -13 -13 -13 -13 -14 -14 -13 -13
-17 -18 -18 -18 -18 -19 -19 -19 -19 -19 -18 -18 -19 -18 -18 -18 -18 -17 -17 -17 -17 -17 -18 -16 -16 -16 -16 -15 -15 -14 -14 -14 -14 -14 -14 -14 -13 -13 -13 -14 -13 -13 -14 -13
-17 -18 -18 -18 -18 -18 -18 -19 -19 -19 -19 -19 -19 -19 -19 -19 -19 -17 -17 -17 -17 -16 -17 -17 -17 -16 -16 -16 -16 -15 -14 -14 -14 -14 -14 -14 -14 -14 -13 -14 -13 -14 -14 -13
-17 -17 -18 -18 -18 -19 -19 -19 -18 -19 -19 -19 -19 -19 -19 -18 -18 -19 -18 -18 -18 -16 -16 -16 -17 -17 -16 -16 -16 -16 -16 -14 -15 -15 -15 -14 -14 -14 -14 -14 -14 -14 -14 -13
-17 -17 -18 -18 -18 -18 -19 -18 -18 -18 -18 -18 -18 -18 -18 -18 -18 -18 -17 -17 -17 -16 -16 -16 -17 -17 -17 -18 -17 -17 -17 -17 -16 -16 -16 -15 -15 -15 -14 -13 -14 -15 -14 -14
-17 -18 -18 -19 -19 -19 -19 -18 -18 -18 -18 -18 -17 -18 -18 -18 -18 -17 -16 -16 -16 -16 -16 -16 -16 -17 -18 -19 -19 -18 -17 -17 -17 -17 -17 -16 -15 -15 -15 -14 -14 -14 -14 -14
-18 -17 -18 -19 -19 -19 -19 -19 -19 -18 -18 -18 -18 -18 -18 -18 -17 -17 -17 -17 -17 -16 -16 -16 -16 -17 -18 -20 -21 -21 -20 -18 -17 -17 -17 -17 -16 -16 -15 -15 -15 -14 -14 -14
-18 -18 -18 -20 -20 -20 -19 -19 -19 -18 -18 -18 -18 -18 -18 -18 -18 -18 -17 -17 -17 -18 -17 -17 -17 -18 -18 -20 -21 -22 -21 -20 -19 -18 -17 -17 -17 -16 -16 -15 -16 -15 -15 -15
-18 -18 -18 -20 -20 -20 -20 -19 -19 -19 -19 -19 -19 -18 -18 -18 -18 -17 -17 -18 -19 -19 -19 -18 -18 -18 -19 -20 -21 -21 -21 -20 -20 -19 -18 -18 -17 -16 -17 -17 -16 -15 -15 -15
-18 -18 -18 -20 -20 -20 -20 -20 -19 -19 -19 -19 -19 -19 -18 -18 -18 -18 -18 -19 -20 -20 -19 -19 -20 -20 -20 -20 -20 -20 -21 -21 -20 -20 -18 -17 -17 -17 -16 -16 -16 -16 -16 -15
-18 -18 -18 -19 -20 -20 -20 -20 -20 -20 -19 -19 -19 -18 -18 -18 -19 -20 -20 -19 -19 -19 -19 -19 -19 -19 -19 -19 -19 -20 -20 -20 -19 -18 -17 -16 -16 -16 -16 -16 -17 -16 -16 -16
-17 -18 -18 -18 -19 -20 -20 -20 -20 -20 -20 -19 -19 -19 -19 -20 -20 -19 -20 -20 -20 -20 -20 -19 -19 -19 -19 -18 -18 -18 -19 -18 -18 -18 -17 -16 -17 -17 -17 -17 -17 -17 -16 -16
-17 -18 -18 -18 -18 -19 -20 -20 -20 -20 -20 -20 -20 -20 -20 -19 -20 -20 -20 -20 -20 -20 -20 -19 -19 -19 -18 -18 -18 -18 -18 -18 -17 -17 -17 -17 -18 -17 -17 -17 -17 -17 -17 -17
-17 -17 -18 -19 -19 -18 -19 -19 -20 -20 -20 -20 -21 -21 -21 -20 -21 -21 -20 -20 -20 -20 -20 -19 -19 -19 -19 -19 -19 -19 -19 -19 -19 -19 -19 -18 -18 -19 -19 -19 -19 -19 -19 -19
-16 -17 -17 -18 -19 -19 -19 -19 -19 -21 -21 -21 -21 -21 -21 -21 -21 -21 -21 -21 -21 -20 -20 -20 -20 -20 -20 -20 -20 -20 -20 -20 -20 -20 -20 -20 -20 -20 -20 -20 -19 -19 -19 -19
-16 -16 -17 -18 -18 -19 -19 -19 -19 -19 -20 -21 -21 -21 -21 -21 -21 -21 -21 -21 -21 -21 -21 -21 -21 -21 -20 -20 -20 -20 -20 -20 -20 -20 -19 -19 -19 -19 -19 -19 -19 -19 -19 -19
-16 -16 -17 -17 -18 -18 -19 -19 -19 -19 -19 -19 -20 -21 -21 -21 -21 -21 -21 -21 -21 -21 -21 -21 -20 -20 -20 -20 -20 -20 -20 -20 -20 -20 -20 -20 -20 -20 -20 -20 -20 -20 -20 -20
-16 -16 -16 -17 -17 -18 -18 -19 -19 -19 -19 -19 -19 -19 -20 -20 -20 -20 -20 -20 -20 -20 -20 -20 -20 -20 -20 -20 -20 -20 -20 -20 -20 -20 -20 -20 -20 -20 -20 -21 -21 -21 -20 -20
-16 -16 -16 -16 -17 -17 -17 -18 -18 -19 -19 -19 -19 -19 -19 -19 -20 -20 -20 -20 -20 -20 -20 -20 -20 -20 -19 -20 -20 -20 -20 -20 -20 -20 -20 -20 -20 -20 -20 -20 -20 -21 -21 -21
Height
5707 5704 5700 5699 5698 5697 5698 5698 5699 5701 5704 5706 5706 5709 5709 5712 5717 5719 5720 5725 5730 5734 5741 5747 5751 5754 5760 5763 5766 5770 5774 5780 5783 5787 5790 5793 5797 5801 5804 5807 5808 5809 5813 5816
5708 5704 5700 5696 5695 5694 5693 5693 5695 5696 5697 5700 5699 5699 5704 5706 5708 5712 5714 5717 5721 5724 5728 5733 5739 5744 5750 5757 5760 5763 5767 5773 5776 5780 5782 5785 5789 5793 5795 5798 5800 5802 5806 5809
5706 5703 5698 5695 5693 5691 5689 5690 5690 5691 5691 5692 5692 5695 5698 5700 5703 5706 5709 5710 5711 5713 5717 5722 5730 5734 5740 5746 5752 5755 5759 5763 5769 5772 5775 5778 5780 5784 5788 5791 5793 5795 5796 5799
5705 5700 5694 5691 5689 5687 5686 5685 5685 5685 5685 5686 5689 5690 5692 5694 5696 5698 5701 5703 5706 5710 5712 5713 5718 5722 5726 5729 5739 5745 5750 5754 5757 5761 5765 5768 5769 5774 5779 5780 5781 5783 5785 5788
5703 5695 5691 5689 5687 5685 5684 5681 5680 5679 5680 5681 5683 5686 5687 5688 5690 5691 5693 5695 5699 5701 5704 5707 5711 5716 5721 5727 5731 5735 5738 5742 5746 5750 5754 5758 5761 5765 5767 5771 5774 5776 5777 5779
5699 5692 5690 5688 5686 5683 5680 5677 5676 5675 5676 5677 5677 5680 5680 5682 5683 5684 5686 5688 5690 5692 5694 5697 5699 5704 5709 5715 5720 5724 5730 5732 5736 5740 5745 5748 5752 5756 5757 5762 5764 5766 5767 5769
5698 5693 5690 5687 5684 5679 5677 5675 5674 5674 5674 5675 5674 5676 5676 5677 5677 5677 5679 5680 5682 5684 5686 5689 5691 5693 5697 5701 5706 5712 5717 5722 5726 5730 5735 5739 5743 5747 5750 5751 5755 5759 5760 5763
5698 5694 5690 5687 5684 5680 5678 5677 5676 5675 5675 5674 5674 5673 5672 5672 5672 5672 5672 5672 5673 5675 5677 5679 5681 5683 5685 5689 5694 5698 5704 5711 5715 5719 5725 5728 5731 5736 5741 5745 5747 5750 5753 5754
5698 5694 5691 5688 5684 5682 5679 5677 5676 5674 5672 5672 5670 5670 5670 5669 5668 5665 5665 5665 5665 5663 5662 5662 5666 5671 5673 5675 5681 5688 5693 5698 5704 5708 5712 5717 5721 5725 5729 5734 5738 5742 5746 5747
5698 5693 5690 5688 5684 5681 5678 5676 5674 5671 5670 5668 5667 5666 5667 5665 5663 5661 5660 5659 5658 5656 5654 5652 5651 5651 5656 5660 5663 5671 5678 5685 5690 5696 5701 5704 5709 5713 5719 5722 5727 5733 5736 5737
5696 5693 5690 5687 5684 5681 5679 5676 5674 5671 5669 5666 5665 5666 5664 5663 5661 5658 5656 5654 5651 5648 5646 5644 5641 5638 5640 5643 5646 5652 5660 5669 5676 5682 5688 5693 5698 5702 5707 5712 5716 5721 5724 5729
5697 5693 5688 5686 5682 5680 5677 5675 5673 5671 5669 5666 5664 5664 5662 5660 5657 5654 5652 5649 5647 5643 5640 5638 5635 5632 5629 5626 5625 5632 5641 5653 5662 5669 5675 5681 5686 5690 5696 5701 5706 5711 5716 5718
5696 5692 5686 5683 5682 5678 5676 5674 5671 5669 5666 5664 5662 5662 5658 5656 5654 5651 5647 5644 5640 5636 5632 5629 5627 5623 5618 5609 5602 5607 5621 5634 5646 5658 5663 5669 5675 5680 5686 5691 5696 5701 5706 5710
5694 5691 5684 5681 5679 5677 5674 5672 5671 5668 5666 5664 5662 5660 5658 5655 5652 5648 5645 5641 5637 5632 5626 5623 5622 5615 5609 5598 5588 5592 5602 5617 5633 5645 5652 5659 5665 5671 5678 5684 5687 5691 5695 5698
5693 5689 5683 5678 5675 5674 5673 5670 5670 5668 5665 5663 5661 5658 5656 5653 5650 5648 5644 5640 5635 5629 5624 5618 5616 5611 5605 5597 5588 5589 5598 5607 5620 5633 5643 5651 5658 5664 5670 5671 5670 5679 5684 5689
5692 5689 5682 5676 5674 5672 5670 5669 5668 5666 5664 5661 5659 5658 5656 5653 5651 5647 5642 5637 5632 5628 5625 5620 5616 5608 5604 5594 5594 5593 5599 5606 5614 5626 5636 5645 5653 5658 5663 5666 5667 5671 5674 5675
5692 5688 5682 5676 5673 5671 5670 5668 5667 5666 5664 5662 5660 5658 5656 5653 5649 5644 5640 5637 5633 5630 5626 5620 5614 5608 5605 5602 5599 5598 5601 5606 5613 5623 5633 5642 5648 5653 5656 5658 5659 5661 5664 5666
5690 5687 5683 5677 5673 5671 5669 5667 5666 5665 5664 5662 5659 5657 5655 5651 5648 5646 5645 5643 5637 5634 5630 5625 5619 5612 5610 5607 5605 5604 5607 5611 5615 5622 5632 5639 5643 5645 5647 5649 5651 5652 5655 5657
5689 5686 5683 5678 5672 5670 5667 5666 5665 5663 5663 5661 5659 5656 5653 5653 5652 5649 5646 5642 5639 5635 5632 5629 5625 5621 5616 5612 5609 5609 5613 5614 5617 5622 5627 5631 5635 5639 5640 5643 5644 5644 5646 5647
5690 5686 5684 5678 5673 5669 5666 5664 5663 5661 5661 5659 5658 5656 5654 5654 5652 5650 5647 5644 5642 5639 5636 5633 5629 5625 5622 5619 5619 5617 5617 5617 5620 5621 5623 5627 5632 5634 5635 5637 5638 5638 5638 5638
5690 5686 5682 5678 5674 5670 5665 5661 5660 5660 5662 5658 5657 5655 5654 5653 5652 5650 5648 5646 5643 5642 5639 5634 5631 5628 5624 5623 5622 5621 5620 5620 5621 5622 5624 5626 5628 5627 5630 5631 5631 5631 5630 5630
5690 5686 5681 5678 5675 5671 5667 5663 5659 5658 5656 5655 5655 5655 5653 5652 5651 5650 5648 5646 5644 5642 5640 5636 5632 5630 5628 5626 5626 5625 5624 5624 5625 5626 5627 5629 5629 5630 5630 5630 5630 5629 5627 5626
5687 5685 5681 5678 5674 5671 5668 5664 5660 5657 5654 5653 5652 5652 5650 5649 5649 5648 5647 5645 5644 5641 5639 5635 5634 5633 5633 5632 5632 5632 5631 5631 5631 5631 5631 5630 5630 5629 5628 5627 5626 5624 5623 5622
5685 5682 5680 5677 5675 5670 5667 5664 5662 5658 5656 5652 5650 5649 5648 5646 5645 5644 5643 5643 5642 5640 5639 5637 5637 5637 5636 5636 5635 5634 5633 5633 5632 5631 5630 5629 5628 5627 5626 5625 5624 5622 5620 5617
5682 5680 5678 5676 5674 5670 5667 5664 5662 5660 5657 5655 5653 5651 5649 5647 5646 5644 5643 5643 5643 5642 5641 5641 5639 5638 5638 5637 5635 5634 5633 5632 5632 5631 5630 5630 5628 5627 5626 5625 5623 5621 5618 5615
5677 5676 5675 5673 5672 5670 5667 5665 5662 5660 5658 5656 5655 5653 5651 5650 5648 5647 5646 5645 5644 5643 5642 5641 5640 5640 5639 5639 5638 5637 5636 5635 5633 5632 5631 5629 5628 5627 5626 5624 5621 5617 5613 5610
Wind_Speed
19 20 17 15 13 14 14 16 18 18 17 17 27 26 31 35 34 36 40 39 40 46 40 40 42 43 43 41 40 45 48 43 46 42 41 41 37 40 41 42 44 42 40 39
21 21 19 14 13 14 14 15 16 17 20 18 20 21 26 30 34 35 35 35 39 42 41 42 41 43 43 43 42 40 41 46 48 46 46 39 41 43 41 43 44 44 41 40
26 24 22 18 14 14 15 15 15 16 18 20 22 21 22 25 28 31 32 36 38 38 42 45 45 45 45 45 44 44 43 40 44 50 49 45 42 40 39 40 43 43 43 42
28 28 23 15 12 11 11 13 14 16 16 16 18 16 20 21 25 27 33 26 31 35 38 42 49 47 52 52 47 48 46 44 43 41 45 48 48 38 42 44 44 46 46 46
35 29 13 8 11 14 14 13 11 13 13 15 16 16 15 20 25 24 26 29 30 29 33 40 41 43 44 47 49 49 49 48 47 46 45 44 47 43 38 37 38 41 46 46
37 25 12 13 16 16 16 13 9 7 8 9 12 12 15 20 24 29 32 30 32 36 37 39 41 43 48 48 47 51 52 52 52 51 49 46 46 47 48 43 41 36 39 43
36 18 13 17 20 20 16 10 7 3 1 7 8 8 12 17 21 26 31 36 38 38 41 43 46 49 48 50 51 51 52 53 54 54 53 51 49 43 54 42 41 46 30 36
32 17 16 20 18 15 12 6 7 3 2 5 8 10 12 12 13 15 19 24 33 44 46 47 50 52 54 55 55 56 55 54 54 55 55 55 54 49 48 45 47 45 50 36
30 19 14 18 14 11 10 10 10 8 9 11 13 13 14 17 20 19 10 9 15 21 30 45 57 56 58 60 60 59 58 55 55 56 56 55 54 53 49 44 43 41 42 48
29 24 14 17 13 15 15 13 9 6 6 8 10 11 10 8 10 3 7 11 17 20 24 31 47 63 66 65 65 63 63 60 57 56 57 57 56 55 52 49 47 44 39 35
29 29 16 16 12 15 14 13 9 8 5 2 6 6 7 8 6 4 5 7 12 21 24 21 25 34 54 70 73 70 66 63 56 54 54 57 56 54 53 53 50 45 46 40
26 27 17 12 13 14 15 13 7 6 6 5 4 7 6 8 8 7 11 11 11 15 17 24 21 23 29 38 62 78 72 66 60 51 47 50 49 49 54 53 51 43 44 46
24 28 23 13 12 14 16 12 10 8 8 7 5 4 5 7 7 7 11 14 15 16 19 17 18 27 26 35 39 60 72 69 63 53 49 47 49 52 48 48 50 45 45 48
24 29 24 14 12 11 13 12 8 8 6 5 5 6 7 8 11 12 12 10 9 14 17 17 14 27 30 31 20 41 52 64 62 57 52 49 44 45 46 46 47 51 50 48
23 29 27 12 11 10 9 11 7 5 5 3 4 6 9 9 9 10 12 11 10 16 18 20 18 18 15 23 15 18 33 38 52 53 54 49 46 42 39 47 34 47 50 47
21 26 27 10 10 9 6 7 6 4 5 3 3 3 4 6 7 8 14 17 16 17 20 18 19 19 6 12 13 6 18 20 36 46 43 40 44 44 38 41 44 46 47 55
18 22 27 10 8 7 7 6 6 4 3 4 5 4 6 8 11 18 22 22 15 13 16 15 10 4 11 8 6 5 11 16 19 28 38 41 40 38 35 39 41 42 47 51
18 20 23 16 6 5 7 6 7 7 4 4 4 3 6 14 19 15 13 18 26 29 31 31 26 11 5 8 3 8 8 12 17 22 25 32 37 40 38 35 37 44 45 47
20 16 19 22 9 6 6 5 5 6 5 6 5 6 10 9 10 15 18 22 25 28 31 33 34 36 30 17 8 21 8 7 7 17 15 16 15 17 20 21 32 34 37 39
21 17 15 18 18 10 9 8 6 6 5 5 4 6 7 6 12 15 18 19 20 21 22 23 24 25 25 27 32 17 11 2 9 8 17 19 17 19 19 20 25 26 28 29
21 20 16 15 15 14 15 9 8 5 3 2 3 4 7 7 7 9 9 11 13 15 17 19 18 17 18 18 16 17 21 22 22 22 19 5 3 6 3 5 8 8 10 13
16 19 18 14 13 13 14 16 11 3 3 1 1 1 2 2 2 3 5 7 10 13 14 13 11 10 12 13 13 14 14 15 13 12 10 8 6 6 6 6 8 10 13 15
12 16 17 17 13 10 9 13 13 18 4 6 5 5 5 6 7 6 5 7 10 12 13 8 8 10 12 13 13 12 11 9 8 7 6 6 6 6 7 7 10 14 16 20
10 11 15 15 14 11 6 8 11 9 15 16 6 3 8 12 13 13 11 8 7 11 14 15 14 12 12 11 10 9 9 9 9 10 10 11 12 13 14 16 17 19 21 22
10 10 10 13 14 13 10 5 6 9 11 10 10 12 14 17 17 18 17 15 13 13 14 13 13 13 12 12 13 13 13 13 14 16 17 18 19 20 19 18 17 16 17 21
12 12 9 9 13 14 13 10 5 2 5 7 8 9 10 10 10 10 11 11 11 11 12 12 12 15 18 19 20 20 20 21 21 20 21 21 22 21 20 21 23 25 28 30
Wind_Direction
344 343 331 318 302 281 262 255 256 258 247 244 244 240 236 238 236 243 244 237 241 233 234 234 237 235 235 236 236 238 238 237 235 230 232 234 239 243 245 247 249 247 247 249
351 347 341 325 299 286 276 261 250 251 246 236 246 242 238 237 239 236 238 240 238 244 228 231 232 237 236 237 239 240 242 238 239 240 243 244 242 241 248 246 249 252 250 250
342 338 333 328 313 289 276 272 261 253 249 236 242 246 242 239 240 241 243 240 232 232 241 229 230 230 235 235 234 239 240 241 242 242 241 244 241 245 244 255 251 252 251 249
341 335 326 333 338 335 313 285 269 257 250 251 237 248 245 246 247 246 244 246 246 247 237 243 228 228 230 230 231 233 236 241 240 241 244 242 248 246 244 250 253 243 246 249
343 332 336 355 350 335 328 317 302 270 253 251 250 243 242 240 247 245 247 244 243 236 236 239 242 239 238 239 238 234 232 234 237 238 234 240 241 239 253 253 256 265 245 250
347 350 354 353 345 336 323 322 317 280 245 238 245 245 247 244 242 245 247 245 245 244 239 240 243 240 238 235 236 238 240 236 236 238 239 240 239 235 247 252 250 266 255 244
352 359 359 351 346 345 352 13 17 352 151 177 203 229 238 250 255 253 251 251 249 247 248 246 245 247 242 237 235 235 238 239 242 240 241 242 244 243 251 253 254 255 270 266
352 348 347 348 355 0 18 47 30 105 175 251 237 254 257 269 269 273 268 266 261 254 250 247 245 246 246 243 239 235 233 233 237 242 243 243 246 246 246 251 252 256 253 266
352 338 336 342 347 342 332 318 309 286 279 271 272 268 263 267 272 271 249 256 258 258 256 249 245 243 244 247 244 241 238 237 234 236 241 242 245 247 250 253 255 257 259 257
352 340 326 334 331 337 347 355 348 331 316 279 255 263 274 267 288 279 216 247 272 291 284 265 253 245 239 240 243 243 239 237 237 235 237 241 241 244 245 246 249 250 248 255
354 344 322 317 315 333 334 346 356 353 23 150 233 250 257 265 264 271 291 297 299 288 295 284 283 265 254 245 236 238 239 237 236 236 235 238 241 244 244 247 247 248 253 250
352 345 317 307 301 320 326 332 358 338 357 352 252 243 269 285 270 270 281 286 309 316 303 269 283 287 282 277 245 236 234 235 234 233 234 236 239 244 244 245 249 249 248 251
352 349 332 289 294 303 310 323 343 357 357 3 355 315 285 315 344 309 297 299 294 310 315 297 294 291 295 300 257 233 230 230 230 230 232 233 236 240 243 246 249 249 249 252
351 347 342 291 284 293 310 305 317 340 357 359 12 334 317 336 358 346 327 329 314 326 312 289 291 286 296 325 285 230 226 226 225 226 231 232 237 238 242 247 249 248 248 251
351 349 344 312 296 300 293 303 298 342 352 323 337 315 325 326 346 342 338 336 337 356 339 313 301 298 320 336 332 234 226 228 221 221 227 230 238 241 239 235 251 248 251 254
354 351 352 326 316 311 307 312 303 351 352 355 325 325 2 352 3 20 15 13 10 357 348 339 313 295 321 24 337 239 217 230 221 215 222 227 236 244 252 258 256 253 251 243
354 357 357 330 328 334 327 310 315 349 18 35 49 53 34 25 29 25 17 14 10 347 334 358 316 297 249 29 67 118 188 178 191 214 218 232 243 252 260 258 257 260 252 249
352 358 1 356 312 348 3 348 328 332 332 341 359 345 359 28 39 45 51 69 61 55 59 54 56 64 117 226 94 137 161 196 195 198 222 236 246 254 258 256 260 256 258 255
354 353 359 9 348 323 350 357 359 347 330 349 353 26 40 52 66 59 47 45 46 47 44 45 48 43 48 54 96 190 199 203 248 189 201 224 251 250 261 247 263 261 260 262
357 348 354 5 13 2 311 300 319 330 336 342 30 60 77 43 61 61 59 52 45 44 43 41 40 44 48 50 53 55 46 11 247 247 198 215 239 247 252 260 262 263 261 266
356 355 342 352 5 13 19 353 287 286 295 358 49 92 90 77 62 55 44 39 34 22 20 21 24 36 47 53 58 59 52 52 46 55 58 85 27 31 317 336 332 342 321 311
348 355 353 343 352 7 14 26 16 315 248 222 233 136 120 81 27 6 10 6 4 354 348 356 13 37 52 54 57 65 68 70 71 68 66 53 46 24 5 342 318 308 304 302
334 347 355 351 353 351 7 21 30 39 16 243 261 273 285 289 286 287 303 322 329 327 332 8 59 62 63 64 60 63 67 62 55 47 37 18 359 345 337 321 316 313 309 306
310 324 348 349 354 2 3 19 27 29 55 63 61 286 279 283 286 291 303 328 23 66 69 68 67 60 53 46 40 31 21 12 3 357 356 356 351 345 340 337 335 333 335 338
293 299 316 340 347 360 4 359 31 43 48 56 64 70 72 81 83 89 93 91 82 72 63 53 47 40 35 34 36 37 39 44 49 51 52 52 50 44 36 27 13 358 345 338
271 280 290 307 326 344 359 2 354 36 41 45 46 43 47 49 55 68 67 62 45 44 45 46 51 69 73 70 64 59 54 48 42 38 33 28 23 14 8 3 356 352 348 346